Airport METAR Information

LTBA 020720Z 15008KT 9999 SCT035 18/12 Q1009 NOSIG

VATSIM Livefeed

Card image cap

ATC Bookings

No position booked

Card image cap

Active ATC

No controllers online

Blog

Read our latest news and get to know us better.